Regional Weather Roundup
Issued by NWS

Home | Current Version | Previous Version | Graphics & Text | Print | Product List | Glossary On
Versions: 1 2 3 4 5 6 7 8 9 10 11 12 13 14 15 16 17 18 19 20 21 22 23 24 25 26 27 28 29 30 31 32 33 34 35 36 37 38 39 40 41 42 43 44 45 46 47 48 49 50
000
ASUS43 KLMK 201010
RWRKY
KENTUCKY REGIONAL WEATHER ROUNDUP
NATIONAL WEATHER SERVICE LOUISVILLE KY
600 AM EDT FRI OCT 20 2017

NOTE "FAIR" INDICATES FEW OR NO CLOUDS BELOW 12,000 FEET
WITH NO SIGNIFICANT WEATHER AND/OR OBSTRUCTIONS TO VISIBILITY.

KYZ001>023-026-027-061>063-070>075-201100-
WESTERN AND SOUTH CENTRAL KENTUCKY

CITY           SKY/WX    TMP DP  RH WIND       PRES   REMARKS
PADUCAH        FAIR      47  44  90 CALM      30.23R
HENDERSON      FAIR      46  46 100 CALM      30.25R
OWENSBORO      FAIR      50  48  93 E3        30.26R
HOPKINSVILLE   FAIR      49  48  96 CALM      30.25R
BOWLING GREEN  FAIR      46  46 100 CALM      30.27S
GLASGOW        FAIR     N/A N/A N/A CALM      30.28R HAZE
$$

KYZ024-025-028>034-038-045-046-053-201100-
NORTH CENTRAL KENTUCKY

CITY           SKY/WX    TMP DP  RH WIND       PRES   REMARKS
LOUISVILLE/SDF FAIR      52  50  93 SE3       30.26R
LOUISVILLE/LOU FAIR      50  50 100 CALM      30.27R FOG
FORT KNOX      FAIR      46  46 100 CALM      30.25S FOG
$$

KYZ035>037-039>044-047>052-055>060-089>105-201100-
NORTHEAST KENTUCKY

CITY           SKY/WX    TMP DP  RH WIND       PRES   REMARKS
LEXINGTON      FAIR      47  43  86 S3        30.28R
COVINGTON      FAIR      46  46 100 S3        30.26R
FRANKFORT      FAIR      46  43  89 CALM      30.27R
$$

KYZ054-064>069-076>088-106>120-201100-
SOUTHEAST KENTUCKY

CITY           SKY/WX    TMP DP  RH WIND       PRES   REMARKS
JACKSON        FAIR      50  46  86 CALM      30.29R
LONDON         FAIR      43  41  93 CALM      30.30R
SOMERSET       FAIR      43  43 100 CALM      30.31R
MIDDLESBORO    FOG       43  43 100 CALM      30.33R VSB 1/4
MONTICELLO     FAIR      40  40 100 W8        30.31S WCI  34
$$





USA.gov is the U.S. government's official web portal to all federal, state and local government web resources and services.